Temperature
-1 0 0 0 0 0 -0 -0 0 1 1 2 1 1 1 1 1 1 0 0 0 -0 -0 -0 0 0 1 0 0 0 0 0 1 1 1 1 1 1 1 0 0 0 0 0
-1 0 0 0 0 0 0 0 0 1 1 2 1 1 1 1 0 0 0 -0 -0 -0 -0 -0 -0 -0 -0 -0 -0 -0 -0 -0 -0 0 0 0 0 0 0 -0 -0 -0 -0 -0
-1 -1 -1 0 0 -0 -0 -0 -0 0 1 0 -0 0 0 0 0 -0 -0 -1 -1 -1 -1 -1 -1 -1 -1 -1 -1 -1 -1 -1 -1 -0 -0 -0 -0 -0 -0 -1 -0 -0 -0 -1
-2 -2 -0 1 0 -0 -0 -0 -1 -0 -0 -0 -0 0 0 0 0 -0 -0 -1 -1 -1 -1 -1 -1 -1 -1 -1 -1 -1 -1 -1 -1 -1 -1 -1 -1 -1 -1 -1 -1 -1 -1 -1
-3 -2 -1 0 0 -1 -1 -1 -1 -1 -1 -1 -0 -1 -0 0 -0 -0 -1 -1 -1 -1 -1 -1 -1 -1 -1 -1 -1 -2 -2 -1 -2 -2 -1 -1 -1 -1 -1 -1 -1 -1 -1 -1
-3 -2 -0 1 -0 -0 -1 -1 -0 -1 -1 -2 -2 -2 -1 -0 -0 -1 -1 -1 -1 -1 -1 -1 -1 -2 -2 -2 -2 -2 -2 -2 -2 -2 -2 -2 -2 -2 -2 -1 -1 -2 -2 -2
-3 -3 -1 -0 -1 -0 -0 0 0 -0 -1 -2 -2 -1 -1 -1 -1 -1 -2 -2 -2 -2 -2 -2 -2 -2 -2 -2 -2 -2 -2 -2 -2 -2 -2 -2 -2 -2 -2 -2 -2 -2 -2 -2
-4 -3 -1 -1 -2 -1 -0 0 0 -0 -1 -1 -1 -1 -1 -2 -2 -2 -2 -2 -2 -2 -2 -2 -2 -2 -2 -3 -3 -3 -3 -3 -3 -3 -3 -3 -3 -2 -2 -2 -2 -2 -2 -3
-3 -1 -0 -0 0 1 1 0 0 -0 -1 -1 -2 -2 -2 -2 -2 -2 -2 -3 -3 -3 -3 -3 -3 -3 -3 -3 -3 -3 -3 -3 -3 -3 -3 -3 -3 -3 -3 -3 -3 -3 -3 -3
-4 -3 -2 -0 0 1 0 0 -0 -1 -1 -1 -2 -2 -2 -3 -3 -3 -3 -3 -3 -3 -3 -3 -3 -3 -3 -3 -3 -3 -3 -3 -3 -3 -3 -3 -3 -3 -3 -4 -4 -4 -4 -4
-4 -3 -2 -1 0 0 -0 -1 -1 -1 -1 -2 -2 -2 -3 -3 -3 -3 -3 -3 -4 -3 -3 -3 -4 -3 -4 -4 -4 -4 -4 -4 -4 -4 -4 -4 -4 -4 -4 -4 -4 -4 -4 -4
-2 -2 -2 -1 0 -0 -1 -1 -1 -2 -2 -2 -2 -3 -3 -3 -3 -3 -3 -4 -4 -4 -4 -4 -4 -4 -4 -4 -4 -4 -4 -4 -4 -4 -4 -4 -4 -4 -4 -4 -4 -4 -4 -4
-0 0 -0 -0 -0 -1 -1 -2 -2 -2 -2 -2 -3 -3 -3 -3 -3 -4 -4 -4 -4 -4 -4 -4 -4 -4 -4 -4 -4 -4 -4 -4 -4 -5 -5 -5 -5 -5 -4 -4 -4 -4 -4 -4
-0 -1 -1 -1 -1 -1 -2 -2 -2 -2 -3 -3 -3 -3 -3 -4 -4 -4 -4 -4 -4 -4 -4 -4 -4 -4 -4 -4 -4 -4 -4 -4 -5 -5 -5 -5 -5 -5 -5 -5 -4 -4 -4 -4
-1 -1 -1 -2 -2 -2 -2 -3 -3 -3 -3 -3 -3 -3 -4 -4 -4 -4 -4 -4 -5 -5 -5 -4 -4 -5 -5 -5 -5 -5 -5 -5 -5 -5 -5 -6 -5 -5 -5 -5 -5 -5 -4 -4
-2 -2 -2 -2 -2 -3 -3 -3 -3 -3 -3 -3 -4 -4 -4 -4 -4 -4 -5 -5 -5 -5 -5 -5 -5 -5 -5 -5 -5 -5 -5 -5 -5 -6 -6 -6 -5 -5 -5 -5 -5 -5 -5 -5
-3 -3 -3 -3 -3 -3 -3 -3 -3 -4 -4 -4 -4 -4 -4 -5 -5 -5 -5 -5 -5 -5 -5 -5 -5 -5 -5 -5 -5 -5 -5 -5 -5 -6 -6 -5 -5 -5 -5 -5 -5 -5 -5 -5
-3 -3 -3 -3 -3 -3 -4 -4 -4 -4 -4 -4 -4 -5 -5 -5 -5 -5 -5 -5 -5 -5 -5 -5 -5 -5 -5 -6 -6 -6 -5 -6 -6 -6 -6 -5 -5 -5 -5 -5 -5 -5 -5 -5
-3 -3 -3 -3 -4 -4 -4 -4 -4 -4 -4 -5 -5 -5 -5 -5 -5 -5 -5 -5 -5 -5 -5 -5 -5 -6 -6 -6 -6 -6 -6 -6 -6 -6 -6 -6 -5 -5 -5 -5 -5 -5 -5 -5
-3 -4 -4 -4 -4 -4 -4 -4 -5 -5 -5 -5 -5 -5 -5 -5 -5 -5 -5 -5 -5 -5 -5 -6 -6 -6 -6 -6 -6 -6 -6 -6 -6 -6 -6 -6 -6 -6 -6 -6 -6 -6 -6 -5
-3 -4 -4 -4 -4 -4 -4 -5 -5 -5 -5 -5 -5 -5 -5 -5 -6 -6 -6 -5 -6 -6 -6 -6 -6 -6 -6 -6 -6 -6 -6 -6 -6 -6 -6 -6 -6 -6 -6 -6 -6 -6 -6 -6
-4 -4 -4 -4 -4 -4 -4 -5 -5 -5 -5 -5 -5 -5 -5 -6 -6 -6 -6 -6 -6 -6 -6 -6 -6 -6 -6 -6 -6 -6 -6 -6 -6 -6 -6 -6 -6 -6 -6 -6 -6 -6 -6 -6
-4 -4 -4 -4 -4 -5 -5 -5 -5 -5 -5 -5 -5 -5 -6 -6 -6 -6 -6 -6 -6 -6 -6 -6 -6 -6 -6 -6 -6 -6 -6 -6 -6 -6 -6 -6 -6 -6 -6 -6 -6 -6 -6 -6
-4 -4 -4 -4 -5 -5 -5 -5 -5 -5 -5 -5 -6 -6 -6 -6 -6 -6 -6 -6 -6 -6 -6 -6 -6 -6 -7 -6 -6 -6 -6 -6 -6 -6 -6 -6 -6 -6 -6 -6 -6 -6 -6 -6
-4 -4 -5 -5 -5 -5 -5 -5 -5 -6 -6 -6 -6 -6 -6 -6 -6 -6 -6 -6 -6 -6 -6 -6 -7 -7 -7 -7 -7 -7 -7 -7 -7 -7 -7 -7 -7 -6 -6 -6 -6 -6 -6 -6
-4 -4 -5 -5 -5 -5 -5 -6 -6 -6 -6 -6 -6 -6 -6 -6 -6 -7 -7 -7 -7 -7 -7 -7 -7 -7 -7 -7 -7 -7 -7 -7 -7 -7 -7 -7 -7 -7 -7 -7 -7 -6 -6 -6
-5 -5 -5 -5 -5 -6 -6 -6 -6 -6 -6 -6 -6 -6 -6 -7 -7 -7 -7 -7 -7 -7 -7 -7 -7 -7 -7 -7 -7 -7 -7 -7 -7 -7 -7 -7 -7 -7 -7 -7 -7 -7 -7 -7
Wind_Speed
7 6 4 7 8 7 8 9 9 9 10 12 9 8 7 6 6 5 5 5 5 6 6 5 6 6 5 4 4 4 4 3 3 2 2 2 1 1 1 1 2 1 1 2
4 4 6 9 10 10 10 9 11 12 14 10 7 5 5 6 5 5 6 6 6 6 6 6 5 5 5 4 4 3 3 4 3 3 3 3 2 2 2 2 1 1 1 1
4 4 4 8 9 9 6 7 7 11 11 7 6 6 6 6 5 5 5 6 6 5 5 5 5 4 4 4 3 3 3 4 3 3 3 3 3 3 2 2 2 1 1 1
2 3 5 7 3 6 7 7 8 8 7 6 7 6 5 4 3 4 5 5 5 5 5 5 4 4 3 3 2 3 3 3 3 3 3 3 3 3 3 2 2 2 2 2
2 3 8 7 3 4 5 7 7 7 7 6 5 4 4 3 2 4 4 4 4 4 5 4 3 3 3 2 2 3 3 3 3 2 3 3 3 3 3 3 3 3 2 2
3 3 6 6 1 2 3 5 5 5 5 4 2 3 5 3 4 4 4 3 3 4 4 3 3 2 2 2 2 3 3 3 2 2 2 2 3 3 3 3 3 3 3 3
5 6 8 5 1 3 3 6 3 3 4 4 4 6 5 4 4 4 4 4 3 3 3 3 3 2 2 2 3 3 3 3 2 2 2 2 2 2 3 3 3 3 3 3
5 5 8 4 5 6 6 3 2 3 4 4 5 5 5 4 4 3 4 4 3 3 3 3 2 2 2 3 3 3 3 3 3 3 2 2 2 2 2 2 3 3 3 4
9 9 4 4 6 5 3 3 3 3 4 4 4 4 4 4 3 3 3 4 3 3 3 3 3 1 2 3 3 3 3 3 3 3 2 2 2 2 2 2 2 2 3 3
6 9 7 6 5 4 3 4 4 4 4 4 4 5 4 4 3 3 3 3 3 2 2 3 3 3 2 3 2 2 2 3 3 3 3 3 2 2 2 2 2 2 2 3
7 7 5 5 5 5 4 3 3 3 3 4 4 4 4 4 4 3 3 3 2 2 2 3 3 3 3 2 2 2 2 2 3 3 2 3 3 3 3 2 2 2 2 2
8 7 5 6 4 3 4 4 4 3 4 4 4 4 4 4 4 3 3 2 2 2 2 3 3 3 3 2 1 1 2 2 2 2 2 2 2 4 6 5 6 6 6 5
6 4 5 5 3 3 4 5 4 4 4 4 4 3 3 3 3 2 2 2 2 2 2 2 2 3 2 2 2 1 1 2 2 2 2 2 3 3 4 5 7 7 7 8
5 3 3 4 4 3 3 3 3 3 3 3 3 3 2 2 2 2 3 3 2 2 2 2 2 2 2 2 2 2 2 2 2 2 2 2 2 2 2 3 4 5 6 7
6 5 5 4 3 2 2 1 2 3 3 3 2 2 2 2 3 3 3 2 1 1 1 2 2 2 2 2 1 1 2 1 2 2 2 2 2 2 2 3 3 3 4 5
4 3 4 4 4 4 3 3 4 4 4 3 3 3 3 2 2 2 2 1 1 2 2 2 2 2 1 1 1 1 1 3 3 2 2 2 2 2 2 2 3 3 3 4
3 4 4 4 5 5 5 5 5 5 4 4 4 3 2 1 1 2 2 2 2 2 2 2 1 1 1 1 1 1 1 1 3 2 2 2 2 2 2 2 2 3 3 4
6 6 5 5 5 6 6 5 5 4 4 4 3 2 2 3 3 3 3 2 1 1 1 1 1 0 0 0 0 0 0 1 1 1 1 2 2 2 2 2 2 3 3 4
4 5 4 5 5 5 5 5 5 4 4 3 3 3 3 4 3 3 2 2 2 2 2 1 1 0 0 1 0 0 0 0 1 1 1 2 2 2 2 2 2 3 3 3
2 2 3 3 3 3 3 3 3 3 3 3 3 3 3 3 3 2 2 2 3 3 2 2 1 1 1 1 0 1 1 0 0 1 1 1 1 2 2 2 2 2 3 3
2 2 2 3 3 2 3 3 3 3 3 3 4 4 4 3 3 3 2 2 2 2 2 2 1 1 1 1 0 1 1 1 0 0 0 0 1 1 2 2 2 2 3 3
2 2 3 3 2 2 2 2 3 3 3 3 3 3 3 3 3 2 3 3 2 2 1 1 1 1 1 0 1 1 1 0 0 0 0 0 0 1 1 2 2 2 2 3
2 3 3 3 2 2 2 2 2 3 3 3 3 4 4 3 3 3 2 2 2 2 1 1 2 2 1 2 1 1 1 0 0 0 0 0 0 1 1 1 2 2 2 3
2 2 2 2 1 1 2 2 2 2 2 2 3 3 3 2 2 2 2 2 2 2 1 2 2 2 2 2 1 1 0 1 1 1 0 0 0 1 1 1 2 2 2 3
2 2 2 2 2 2 3 2 1 1 1 1 2 2 2 2 2 2 1 2 2 1 1 2 2 2 1 1 1 1 1 1 1 0 0 0 0 1 1 1 2 2 2 2
3 3 3 3 3 2 2 2 2 2 2 1 1 1 1 1 2 2 1 1 2 2 1 1 1 1 1 1 1 1 0 1 1 0 1 1 1 1 1 2 2 2 2 2
2 2 1 1 2 2 2 2 3 3 2 3 2 2 2 2 2 2 2 1 1 1 1 1 1 1 1 1 1 1 1 1 1 1 1 1 1 1 1 2 2 2 2 2
Wind_Direction
256 263 248 251 252 232 220 221 229 251 257 271 276 276 284 289 296 304 307 319 326 326 325 326 331 333 336 339 344 346 349 353 349 349 352 349 353 355 324 303 310 304 296 293
281 268 266 270 257 241 239 237 244 263 271 270 273 277 283 288 291 293 299 309 315 318 322 322 328 330 334 339 343 349 348 344 347 357 4 4 359 13 8 339 311 315 318 305
271 308 324 274 243 217 218 219 215 242 257 285 288 282 277 282 284 282 291 303 306 308 312 310 313 318 324 327 339 353 351 346 350 2 9 3 355 14 11 349 341 343 316 304
269 8 251 251 233 200 214 243 232 247 267 275 271 278 279 269 271 287 295 299 302 306 312 311 314 320 326 337 355 356 350 347 354 10 11 1 358 6 356 348 345 343 333 334
183 253 276 285 251 181 201 262 235 240 266 283 298 310 285 269 285 281 287 290 293 298 306 309 310 316 336 346 359 357 348 346 354 7 11 358 360 355 349 354 350 344 339 354
182 222 248 257 250 153 121 277 250 221 252 274 316 297 279 294 312 310 313 309 311 316 318 314 311 323 346 348 1 350 340 335 336 359 18 359 352 348 350 354 348 346 353 352
206 234 263 255 202 127 179 258 263 221 235 236 228 241 272 297 307 306 308 312 321 322 320 311 316 333 346 353 348 333 335 341 358 6 9 358 0 352 353 355 355 357 351 342
183 216 253 204 150 190 228 262 241 231 229 239 253 273 284 288 294 306 313 320 327 329 327 330 337 354 349 342 331 338 350 359 4 3 0 5 13 357 0 1 2 358 359 351
200 220 249 194 208 233 224 239 244 234 247 242 257 270 284 288 289 296 299 307 321 326 331 342 341 355 339 322 334 351 3 3 2 2 4 2 7 2 359 359 358 352 356 351
245 257 253 249 251 258 228 230 245 242 246 236 248 264 279 283 292 298 295 300 317 329 336 336 338 343 319 315 338 3 5 358 358 6 5 5 360 356 350 340 343 347 346 340
249 267 287 262 234 239 240 239 250 257 244 242 247 262 264 273 279 283 293 299 305 303 304 309 323 330 327 327 349 3 355 356 356 360 0 0 358 351 340 329 329 331 322 317
230 224 211 250 242 220 223 244 250 259 278 264 239 249 259 265 265 266 272 286 300 297 296 303 318 321 322 327 345 12 2 359 353 353 354 358 0 1 4 0 1 357 349 341
233 233 224 253 258 222 222 244 251 250 256 268 261 245 243 259 262 261 265 273 284 282 291 301 314 317 321 331 351 12 356 342 341 351 355 357 359 2 357 2 9 10 7 4
232 218 243 243 245 248 243 259 263 268 265 256 254 254 237 251 256 252 260 266 271 271 285 302 313 315 319 335 4 11 357 355 358 349 350 350 348 344 345 351 351 353 0 6
236 223 227 240 251 260 264 259 268 278 280 279 251 238 229 234 243 257 266 276 275 264 285 306 315 319 330 346 10 8 1 356 353 353 353 350 347 352 357 357 354 348 349 0
255 240 229 232 247 257 256 250 252 262 262 257 253 247 240 236 245 256 259 237 217 249 262 275 296 313 336 354 6 4 7 6 5 5 4 1 359 359 0 2 358 357 358 353
221 237 233 244 253 258 248 242 242 249 243 240 242 242 231 225 249 257 259 259 246 249 249 240 265 305 337 350 357 360 2 360 7 10 6 356 355 353 352 355 1 4 355 350
220 226 226 230 243 254 258 251 244 237 233 233 227 213 209 213 228 242 253 260 268 289 273 253 242 248 316 323 316 132 43 359 1 8 360 358 0 358 355 2 9 5 353 354
225 225 230 234 236 239 245 248 246 236 226 216 211 217 223 227 229 230 225 217 223 251 271 259 283 107 204 264 1 138 118 47 19 7 2 8 14 7 6 11 8 3 358 357
230 228 230 244 246 233 241 247 239 236 228 212 209 213 225 234 226 211 204 224 236 239 241 231 203 189 209 220 290 139 131 117 74 20 14 18 12 6 6 5 3 1 359 355
234 238 237 245 264 263 241 224 214 226 233 215 210 217 222 227 213 198 198 244 268 240 219 225 183 209 217 209 171 132 135 140 143 138 347 8 20 10 3 360 358 354 351 348
229 231 238 241 247 270 272 235 213 219 227 223 219 211 204 210 210 213 225 226 229 233 212 191 201 220 227 128 124 136 143 152 152 172 220 359 9 352 347 348 345 341 339 337
228 226 231 235 234 252 277 251 219 214 218 218 213 209 209 212 206 204 241 237 209 217 190 197 221 211 148 103 115 132 149 168 183 189 222 279 306 308 316 320 322 323 325 327
230 230 233 235 199 213 251 256 239 226 222 223 216 211 202 202 228 227 220 223 214 206 186 211 214 185 125 114 138 145 183 206 207 207 217 259 284 293 295 296 303 311 317 322
220 222 217 207 220 236 241 239 229 224 217 225 231 226 214 201 205 210 192 193 193 166 161 203 193 163 127 146 167 180 212 226 215 179 175 266 289 301 300 296 298 305 309 314
214 220 227 227 228 233 222 208 211 216 208 222 240 226 198 167 159 160 158 170 181 166 149 181 200 181 156 177 191 200 215 261 275 245 241 259 265 283 295 301 301 298 298 304
228 225 222 247 247 225 215 211 213 217 209 206 218 210 180 159 150 152 155 162 167 157 156 171 179 173 173 182 203 222 230 233 228 223 231 240 250 260 274 286 295 299 304 313
Height
1501 1498 1498 1495 1494 1494 1495 1493 1493 1483 1480 1471 1469 1468 1466 1464 1462 1460 1457 1455 1452 1449 1446 1444 1441 1439 1437 1435 1433 1431 1430 1428 1427 1426 1425 1424 1422 1422 1421 1421 1420 1420 1420 1420
1500 1495 1494 1492 1487 1487 1487 1486 1484 1479 1473 1466 1466 1465 1463 1461 1460 1457 1455 1453 1450 1448 1445 1442 1440 1438 1436 1434 1432 1430 1429 1427 1425 1424 1423 1421 1420 1420 1419 1419 1419 1418 1417 1417
1501 1498 1494 1488 1480 1480 1480 1478 1477 1475 1469 1465 1464 1462 1460 1458 1457 1455 1453 1451 1448 1446 1443 1441 1439 1437 1435 1433 1431 1429 1427 1426 1424 1423 1421 1420 1419 1418 1417 1417 1417 1416 1416 1415
1505 1502 1496 1476 1471 1472 1473 1472 1471 1468 1465 1463 1461 1459 1458 1456 1455 1453 1451 1449 1447 1444 1442 1439 1437 1435 1433 1432 1429 1428 1426 1425 1423 1421 1420 1419 1418 1417 1416 1416 1415 1414 1414 1413
1506 1502 1488 1474 1470 1470 1472 1469 1465 1464 1462 1461 1459 1457 1455 1454 1453 1451 1449 1447 1445 1442 1440 1437 1436 1434 1432 1430 1428 1426 1425 1423 1422 1421 1419 1418 1417 1416 1416 1415 1414 1413 1412 1411
1503 1497 1486 1469 1467 1466 1470 1468 1460 1460 1459 1459 1458 1459 1454 1451 1450 1448 1446 1444 1442 1440 1437 1435 1434 1432 1430 1428 1426 1425 1423 1422 1421 1420 1418 1417 1416 1415 1415 1414 1413 1412 1411 1410
1499 1496 1479 1466 1465 1467 1472 1464 1457 1456 1456 1456 1455 1454 1451 1449 1447 1445 1444 1442 1439 1437 1435 1434 1432 1430 1429 1427 1425 1424 1422 1421 1420 1418 1417 1416 1415 1415 1414 1413 1412 1410 1409 1408
1494 1492 1477 1462 1464 1465 1460 1456 1455 1454 1454 1453 1451 1450 1448 1446 1444 1442 1441 1439 1437 1435 1434 1432 1431 1429 1427 1426 1424 1423 1422 1420 1419 1417 1416 1416 1415 1414 1413 1412 1411 1409 1408 1407
1476 1469 1459 1457 1456 1455 1455 1454 1453 1452 1451 1450 1449 1447 1445 1443 1442 1440 1439 1437 1435 1434 1432 1431 1429 1428 1426 1425 1423 1422 1421 1419 1418 1417 1416 1415 1414 1413 1412 1411 1410 1408 1407 1405
1469 1459 1455 1454 1453 1453 1453 1452 1451 1450 1449 1448 1446 1444 1443 1441 1439 1438 1436 1435 1433 1432 1430 1429 1428 1427 1426 1424 1423 1421 1419 1418 1417 1416 1415 1414 1413 1412 1411 1410 1408 1407 1406 1405
1463 1455 1453 1450 1450 1450 1449 1449 1448 1447 1446 1445 1443 1441 1440 1438 1437 1435 1434 1433 1432 1430 1429 1428 1427 1426 1425 1423 1422 1420 1419 1417 1416 1415 1414 1413 1412 1411 1410 1409 1408 1407 1406 1405
1453 1448 1449 1447 1446 1447 1446 1445 1445 1444 1442 1441 1440 1438 1437 1436 1434 1433 1432 1431 1430 1429 1428 1427 1426 1425 1423 1422 1421 1419 1418 1417 1416 1414 1413 1412 1411 1410 1409 1409 1408 1407 1406 1405
1445 1444 1444 1444 1444 1443 1443 1442 1441 1440 1439 1438 1437 1436 1434 1433 1432 1431 1430 1429 1428 1427 1426 1426 1425 1423 1422 1421 1420 1418 1417 1416 1415 1413 1412 1411 1410 1409 1408 1408 1407 1406 1405 1404
1442 1442 1441 1441 1441 1440 1439 1438 1438 1437 1436 1435 1434 1433 1431 1430 1429 1429 1428 1427 1426 1426 1425 1424 1423 1422 1421 1420 1419 1418 1417 1416 1414 1413 1412 1411 1410 1409 1408 1406 1405 1405 1404 1403
1438 1438 1438 1437 1437 1437 1436 1435 1434 1433 1432 1431 1431 1430 1429 1428 1427 1427 1426 1426 1425 1424 1424 1423 1422 1421 1420 1419 1418 1417 1416 1415 1414 1412 1412 1411 1410 1409 1408 1407 1406 1405 1404 1403
1434 1434 1434 1434 1433 1433 1432 1432 1431 1430 1429 1428 1427 1427 1426 1426 1425 1425 1425 1424 1423 1423 1422 1422 1421 1420 1420 1419 1418 1417 1416 1415 1414 1412 1412 1411 1410 1409 1408 1407 1405 1404 1403 1402
1431 1430 1430 1430 1430 1429 1429 1428 1427 1426 1426 1425 1425 1424 1424 1424 1423 1423 1423 1422 1422 1422 1421 1421 1420 1420 1419 1419 1418 1417 1416 1415 1414 1413 1412 1411 1410 1409 1408 1406 1405 1405 1404 1403
1427 1427 1427 1427 1426 1425 1425 1424 1424 1423 1423 1422 1422 1422 1421 1421 1421 1421 1421 1421 1420 1420 1420 1420 1420 1419 1419 1418 1417 1416 1415 1414 1413 1412 1412 1411 1410 1409 1408 1407 1406 1405 1404 1403
1423 1423 1423 1423 1423 1422 1421 1421 1420 1420 1420 1419 1419 1419 1419 1419 1419 1419 1419 1419 1419 1419 1419 1419 1418 1418 1417 1417 1416 1416 1415 1414 1413 1412 1411 1411 1410 1409 1408 1407 1407 1406 1405 1403
1420 1420 1420 1420 1419 1419 1418 1418 1417 1417 1417 1417 1417 1417 1417 1417 1417 1417 1417 1417 1417 1417 1417 1417 1417 1417 1416 1416 1415 1415 1414 1413 1412 1412 1411 1410 1410 1409 1408 1408 1407 1406 1405 1404
1417 1417 1417 1417 1416 1416 1416 1415 1415 1415 1415 1415 1415 1414 1415 1415 1415 1415 1415 1415 1415 1416 1416 1416 1416 1416 1415 1415 1414 1414 1413 1412 1412 1411 1410 1410 1409 1409 1408 1407 1407 1406 1405 1404
1415 1415 1415 1415 1414 1414 1413 1413 1413 1413 1412 1412 1412 1412 1412 1413 1413 1413 1413 1413 1413 1414 1414 1414 1414 1414 1414 1414 1413 1413 1412 1412 1411 1411 1410 1409 1409 1408 1408 1407 1406 1405 1405 1404
1413 1413 1413 1413 1412 1412 1411 1411 1411 1411 1410 1410 1410 1410 1410 1411 1411 1411 1411 1412 1411 1412 1412 1412 1413 1413 1413 1413 1412 1412 1411 1411 1410 1410 1409 1409 1408 1408 1407 1407 1406 1405 1404 1403
1411 1411 1411 1411 1411 1410 1409 1409 1409 1409 1408 1408 1409 1409 1409 1409 1409 1409 1410 1410 1410 1410 1411 1411 1411 1411 1411 1411 1411 1411 1410 1410 1409 1409 1409 1408 1408 1407 1407 1406 1406 1405 1404 1403
1409 1409 1409 1409 1408 1408 1407 1407 1407 1406 1406 1406 1407 1407 1407 1407 1408 1408 1408 1408 1408 1409 1409 1409 1410 1410 1410 1410 1410 1409 1409 1408 1408 1408 1408 1408 1407 1407 1406 1406 1405 1405 1404 1403
1407 1407 1407 1406 1406 1406 1405 1405 1404 1404 1404 1404 1404 1405 1405 1405 1406 1406 1406 1406 1407 1407 1407 1408 1408 1408 1409 1409 1408 1408 1408 1408 1407 1407 1407 1407 1407 1406 1406 1405 1405 1404 1404 1403
1404 1404 1404 1404 1404 1403 1403 1402 1402 1402 1402 1402 1402 1402 1403 1403 1404 1404 1405 1405 1405 1405 1406 1406 1407 1407 1407 1407 1407 1407 1407 1407 1407 1407 1407 1406 1406 1406 1405 1405 1405 1404 1404 1403